Location: Nordegg
(52.4712°N, 116.0743°W)
Time: 09:07:00
(UTC+00:00)

Envisat - Pass Details

Date: 04 December 2021
Orbit: 764 x 766 km, 98.2° (Epoch: 25 January)

Event Time Altitude Azimuth Distance (km) Brightness Sun altitude
Rises 00:08:09 0° 179° (S) 3,221 6.7 -5.3°
Reaches altitude 10° 00:10:31 10° 184° (S) 2,300 6.0 -5.6°
Maximum altitude 00:15:27 51° 261° (W) 960 4.1 -6.3°
Drops below altitude 10° 00:20:26 10° 337° (NNW) 2,317 5.5 -7.0°
Sets 00:22:49 0° 343° (NNW) 3,248 6.1 -7.3°
